DW5212 Weather Reports


time (UTC)temp
F
wind
direction
speed
knots
gust
knots
rain 1hr
in
rain 24hr
in
rain mn
in
humidity
%
barometer
mb
20260906000007 82 169 0.9 2.6 0.00 0.00 0.00 80 1012.6
20260905235503 82 230 0.9 2.6 0.00 0.00 0.00 80 1012.6
20260905234504 82 251 0.0 2.6 0.00 0.00 0.00 80 1012.7
20260905234004 82 255 0.9 2.6 0.00 0.00 0.00 80 1012.6
20260905233503 82 221 0.9 1.7 0.00 0.00 0.00 81 1012.6
20260905233004 82 220 0.9 3.5 0.00 0.00 0.00 81 1012.6
20260905232504 82 208 0.9 3.5 0.00 0.00 0.00 81 1012.6
20260905232004 82 217 0.9 5.2 0.00 0.00 0.00 80 1012.6
20260905231505 82 216 0.9 4.3 0.00 0.00 0.00 80 1012.4
20260905231005 82 182 0.9 3.5 0.00 0.00 0.00 80 1012.2
20260905230503 83 223 1.7 3.5 0.00 0.00 0.00 80 1012.1
20260905230008 83 217 1.7 3.5 0.00 0.00 0.00 79 1012.0
20260905225503 83 221 1.7 4.3 0.00 0.00 0.00 79 1012.0
20260905225004 83 210 1.7 4.3 0.00 0.00 0.00 78 1012.1
20260905224504 83 216 2.6 7.0 0.00 0.00 0.00 77 1012.1
20260905224007 83 157 1.7 7.0 0.00 0.00 0.00 76 1012.1
20260905223503 83 241 1.7 8.7 0.00 0.00 0.00 75 1012.2
20260905222503 84 192 2.6 7.8 0.00 0.00 0.00 73 1012.0
20260905222005 84 284 2.6 9.6 0.00 0.00 0.00 72 1012.0
20260905221004 86 229 3.5 10.4 0.00 0.00 0.00 69 1011.9
20260905220503 87 236 2.6 9.6 0.00 0.00 0.00 68 1011.8
20260905220007 88 228 3.5 9.6 0.00 0.00 0.00 66 1011.9
20260905215503 89 171 4.3 9.6 0.00 0.00 0.00 64 1011.8
20260905215004 91 236 3.5 10.4 0.00 0.00 0.00 61 1011.7
20260905214004 94 38 1.7 7.0 0.00 0.00 0.00 57 1011.3
20260905213503 94 263 1.7 7.0 0.00 0.00 0.00 56 1011.1
20260905213005 94 132 1.7 3.5 0.00 0.00 0.00 55 1011.0
20260905212504 94 77 1.7 5.2 0.00 0.00 0.00 54 1010.9
20260905212004 94 213 1.7 5.2 0.00 0.00 0.00 55 1010.9
20260905210006 93 115 0.9 6.1 0.00 0.00 0.00 58 1011.0
20260905205504 93 24 0.0 2.6 0.00 0.00 0.00 58 1011.0
20260905205004 93 43 0.9 1.7 0.00 0.00 0.00 57 1011.0
20260905204505 94 74 1.7 7.0 0.00 0.00 0.00 56 1011.1
20260905204004 95 52 2.6 7.0 0.00 0.00 0.00 54 1011.1
20260905203503 95 172 1.7 6.1 0.00 0.00 0.00 55 1011.0
20260905203004 94 348 0.9 3.5 0.00 0.00 0.00 55 1011.1
20260905202506 94 28 0.9 3.5 0.00 0.00 0.00 56 1011.1
20260905202005 94 177 0.9 2.6 0.00 0.00 0.00 56 1011.2
20260905201505 95 38 0.9 3.5 0.00 0.00 0.00 55 1011.3
20260905200505 94 77 0.9 2.6 0.00 0.00 0.00 56 1011.3
20260905195504 94 60 1.7 4.3 0.00 0.00 0.00 58 1011.6
20260905195004 93 78 1.7 4.3 0.00 0.00 0.00 58 1011.5
20260905194505 93 72 0.9 4.3 0.00 0.00 0.00 58 1011.8
20260905194004 93 60 0.9 1.7 0.00 0.00 0.00 58 1011.8
20260905193505 94 60 0.0 2.6 0.00 0.00 0.00 57 1011.9
20260905192503 95 105 0.9 4.3 0.00 0.00 0.00 55 1012.0
20260905192004 96 90 0.9 2.6 0.00 0.00 0.00 56 1012.0
20260905191005 95 149 0.9 4.3 0.00 0.00 0.00 56 1012.2
20260905190006 96 173 0.9 5.2 0.00 0.00 0.00 56 1012.1
20260905185504 95 39 0.9 5.2 0.00 0.00 0.00 56 1012.3
20260905185006 95 31 1.7 3.5 0.00 0.00 0.00 58 1012.3
20260905184004 95 169 0.9 7.8 0.00 0.00 0.00 59 1012.6
20260905183505 95 159 0.9 6.1 0.00 0.00 0.00 60 1012.6
20260905183005 95 81 0.9 2.6 0.00 0.00 0.00 58 1012.6
20260905182504 95 10 1.7 3.5 0.00 0.00 0.00 59 1012.7
20260905181506 94 13 1.7 3.5 0.00 0.00 0.00 59 1012.8
20260905181005 93 87 1.7 3.5 0.00 0.00 0.00 60 1012.8
20260905180505 93 117 0.9 2.6 0.00 0.00 0.00 61 1013.0
20260905180006 93 71 0.9 2.6 0.00 0.00 0.00 61 1013.0
20260905175505 93 80 0.9 2.6 0.00 0.00 0.00 60 1013.1
20260905175004 94 55 0.9 4.3 0.00 0.00 0.00 60 1013.1
20260905174505 93 319 0.9 4.3 0.00 0.00 0.00 61 1013.2
20260905174003 93 87 0.9 3.5 0.00 0.00 0.00 61 1013.1
20260905173504 93 32 0.9 2.6 0.00 0.00 0.00 61 1013.3
20260905173006 93 61 0.0 0.9 0.00 0.00 0.00 62 1013.5
20260905172505 93 32 0.9 2.6 0.00 0.00 0.00 63 1013.4
20260905172004 93 13 0.9 2.6 0.00 0.00 0.00 63 1013.5
20260905171005 92 185 0.9 2.6 0.00 0.00 0.00 65 1013.7
20260905170504 92 229 0.9 2.6 0.00 0.00 0.00 68 1013.8
20260905170006 91 275 0.9 2.6 0.00 0.00 0.00 67 1014.0
20260905165004 91 185 0.0 2.6 0.00 0.00 0.00 70 1014.0
20260905164505 90 28 0.9 2.6 0.00 0.00 0.00 70 1014.0
20260905164004 90 108 0.9 2.6 0.00 0.00 0.00 71 1014.1
20260905163503 89 36 0.0 2.6 0.00 0.00 0.00 70 1014.1
20260905163004 90 355 0.0 0.9 0.00 0.00 0.00 70 1014.1
20260905162004 91 355 0.0 1.7 0.00 0.00 0.00 68 1014.2
20260905161004 91 95 0.0 0.0 0.00 0.00 0.00 69 1014.2
20260905160504 91 130 0.0 0.0 0.00 0.00 0.00 70 1014.2
20260905155504 90 329 0.0 0.0 0.00 0.00 0.00 71 1014.2
20260905155006 89 24 0.0 1.7 0.00 0.00 0.00 73 1014.3
20260905154506 89 63 0.9 2.6 0.00 0.00 0.00 74 1014.3
20260905154006 88 63 0.0 2.6 0.00 0.00 0.00 74 1014.3
20260905153005 88 51 0.0 0.0 0.00 0.00 0.00 75 1014.2
20260905152505 88 167 0.0 0.0 0.00 0.00 0.00 75 1014.2
20260905152005 87 167 0.0 0.0 0.00 0.00 0.00 76 1014.3
20260905151505 87 215 0.0 0.0 0.00 0.00 0.00 76 1014.3
20260905151004 86 215 0.0 0.0 0.00 0.00 0.00 77 1014.3
20260905150503 86 215 0.0 0.0 0.00 0.00 0.00 77 1014.4
20260905150006 86 215 0.0 0.0 0.00 0.00 0.00 78 1014.4
20260905145503 86 212 0.0 0.0 0.00 0.00 0.00 79 1014.3
20260905145004 85 110 0.0 0.0 0.00 0.00 0.00 79 1014.3
20260905144503 84 111 0.0 0.9 0.00 0.00 0.00 81 1014.4
20260905144004 84 128 0.0 1.7 0.00 0.00 0.00 81 1014.4
20260905143504 83 128 0.0 1.7 0.00 0.00 0.00 82 1014.3
20260905143005 82 128 0.9 1.7 0.00 0.00 0.00 84 1014.4
20260905142005 81 127 0.0 3.5 0.00 0.00 0.00 86 1014.3
20260905141004 79 129 0.0 2.6 0.00 0.00 0.00 88 1014.3
20260905140503 79 145 0.9 2.6 0.00 0.00 0.00 89 1014.3
20260905140006 79 185 0.9 2.6 0.00 0.00 0.00 89 1014.4
20260905135503 78 133 0.0 0.9 0.00 0.00 0.00 90 1014.4
20260905135004 78 133 0.0 0.9 0.00 0.00 0.00 91 1014.4
20260905134503 78 133 0.0 1.7 0.00 0.00 0.00 91 1014.5
20260905134003 77 132 0.0 0.9 0.00 0.00 0.00 91 1014.6
20260905133004 77 110 0.0 0.0 0.00 0.00 0.00 92 1014.6
20260905132003 76 110 0.0 0.0 0.00 0.00 0.00 92 1014.5
20260905131503 76 110 0.0 0.0 0.00 0.00 0.00 93 1014.5
20260905130502 76 110 0.0 0.0 0.00 0.00 0.00 93 1014.4
20260905130004 75 110 0.0 0.0 0.00 0.00 0.00 93 1014.5
20260905125504 75 110 0.0 0.0 0.00 0.00 0.00 93 1014.5
20260905125004 75 110 0.0 0.0 0.00 0.00 0.00 93 1014.4
20260905124004 75 110 0.0 0.0 0.00 0.00 0.00 93 1014.4
20260905123503 75 110 0.0 0.0 0.00 0.00 0.00 93 1014.2
20260905123006 75 110 0.0 0.0 0.00 0.00 0.00 93 1014.2
20260905122004 74 110 0.0 0.0 0.00 0.00 0.00 93 1014.1
20260905121503 74 111 0.0 0.0 0.00 0.00 0.00 93 1014.1
20260905121005 74 111 0.0 0.0 0.00 0.00 0.00 93 1014.1
20260905120504 74 110 0.0 0.0 0.00 0.00 0.00 93 1014.1
20260905120005 74 111 0.0 0.0 0.00 0.00 0.00 93 1013.9
20260905115503 74 111 0.0 0.0 0.00 0.00 0.00 93 1013.8
20260905115003 74 110 0.0 0.0 0.00 0.00 0.00 93 1013.8
20260905114503 74 110 0.0 0.0 0.00 0.00 0.00 93 1013.8
20260905114004 74 110 0.0 0.0 0.00 0.00 0.00 93 1013.8
20260905113503 74 110 0.0 0.0 0.00 0.00 0.00 92 1013.8
20260905113006 74 110 0.0 0.0 0.00 0.00 0.00 92 1013.6
20260905112003 74 110 0.0 0.0 0.00 0.00 0.00 92 1013.5
20260905111503 74 110 0.0 0.0 0.00 0.00 0.00 92 1013.6
20260905111004 75 110 0.0 0.0 0.00 0.00 0.00 92 1013.4
20260905110502 75 110 0.0 0.0 0.00 0.00 0.00 92 1013.2
20260905110008 75 110 0.0 0.0 0.00 0.00 0.00 92 1013.2
20260905105504 75 110 0.0 0.0 0.00 0.00 0.00 92 1013.1
20260905105003 75 111 0.0 0.0 0.00 0.00 0.00 92 1013.0
20260905104503 75 110 0.0 0.0 0.00 0.00 0.00 92 1013.0
20260905104003 75 110 0.0 0.0 0.00 0.00 0.00 92 1013.1
20260905103502 75 110 0.0 0.0 0.00 0.00 0.00 92 1013.2
20260905103004 75 110 0.0 0.0 0.00 0.00 0.00 92 1013.2
20260905102502 75 110 0.0 0.0 0.00 0.00 0.00 92 1013.2
20260905102004 75 110 0.0 0.0 0.00 0.00 0.00 92 1013.3
20260905101505 75 110 0.0 0.0 0.00 0.00 0.00 92 1013.3
20260905101003 75 110 0.0 0.0 0.00 0.00 0.00 92 1013.2
20260905100503 75 110 0.0 0.0 0.00 0.00 0.00 92 1013.2
20260905100004 75 110 0.0 0.0 0.00 0.00 0.00 91 1013.1
20260905095503 75 110 0.0 0.0 0.00 0.00 0.00 91 1013.3
20260905095004 75 110 0.0 0.0 0.00 0.00 0.00 91 1013.2
20260905094503 75 110 0.0 0.0 0.00 0.00 0.00 91 1013.2
20260905094002 75 110 0.0 0.0 0.00 0.00 0.00 91 1013.2
20260905093503 74 110 0.0 0.0 0.00 0.00 0.00 91 1013.3
20260905093004 74 110 0.0 0.0 0.00 0.00 0.00 91 1013.2
20260905092503 75 110 0.0 0.0 0.00 0.00 0.00 91 1013.2
20260905092003 75 110 0.0 0.0 0.00 0.00 0.00 91 1013.2
20260905091503 75 110 0.0 0.0 0.00 0.00 0.00 91 1013.2
20260905091004 75 110 0.0 0.0 0.00 0.00 0.00 91 1013.1
20260905090502 75 110 0.0 0.0 0.00 0.00 0.00 91 1013.1
20260905090004 75 110 0.0 0.0 0.00 0.00 0.00 91 1013.2
20260905085503 75 110 0.0 0.0 0.00 0.00 0.00 91 1013.1
20260905085004 75 111 0.0 0.0 0.00 0.00 0.00 91 1013.1
20260905084503 75 110 0.0 0.0 0.00 0.00 0.00 91 1013.2
20260905084003 75 110 0.0 0.0 0.00 0.00 0.00 91 1013.2
20260905083503 75 110 0.0 0.0 0.00 0.00 0.00 91 1013.2
20260905083004 75 110 0.0 0.0 0.00 0.00 0.00 91 1013.2
20260905082502 75 110 0.0 0.0 0.00 0.00 0.00 91 1013.2
20260905082003 75 110 0.0 0.0 0.00 0.00 0.00 91 1013.1
20260905081503 75 110 0.0 0.0 0.00 0.00 0.00 91 1013.0
20260905081003 74 110 0.0 0.0 0.00 0.00 0.00 91 1013.0
20260905080502 74 110 0.0 0.0 0.00 0.00 0.00 91 1013.2
20260905080004 74 110 0.0 0.0 0.00 0.00 0.00 91 1013.2
20260905075502 74 110 0.0 0.0 0.00 0.00 0.00 91 1013.1
20260905075003 74 111 0.0 0.0 0.00 0.00 0.00 91 1013.2
20260905074504 74 111 0.0 0.0 0.00 0.00 0.00 91 1013.2
20260905074003 74 110 0.0 0.0 0.00 0.00 0.00 91 1013.2
20260905073503 74 110 0.0 0.0 0.00 0.00 0.00 90 1013.1
20260905072004 75 110 0.0 0.0 0.00 0.00 0.00 90 1013.2
20260905071503 75 110 0.0 0.0 0.00 0.00 0.00 90 1013.2
20260905071003 75 110 0.0 0.0 0.00 0.00 0.00 90 1013.1
20260905070006 75 110 0.0 0.0 0.00 0.00 0.00 90 1013.1
20260905065502 75 110 0.0 0.0 0.00 0.00 0.00 90 1013.2
20260905065003 75 110 0.0 0.0 0.00 0.00 0.00 90 1013.3
20260905064503 75 110 0.0 0.0 0.00 0.00 0.00 89 1013.3
20260905064003 75 110 0.0 0.0 0.00 0.00 0.00 89 1013.5
20260905063503 75 110 0.0 0.0 0.00 0.00 0.00 89 1013.4
20260905062503 75 110 0.0 0.0 0.00 0.00 0.00 89 1013.4
20260905062004 75 110 0.0 0.0 0.00 0.00 0.00 88 1013.3
20260905061503 75 111 0.0 0.0 0.00 0.00 0.00 88 1013.4
20260905061004 76 110 0.0 0.0 0.00 0.00 0.00 87 1013.3
20260905060504 76 110 0.0 0.0 0.00 0.00 0.00 87 1013.4
20260905060009 76 110 0.0 0.0 0.00 0.00 0.00 87 1013.2
20260905055504 76 110 0.0 0.0 0.00 0.00 0.00 86 1013.3
20260905055005 76 110 0.0 0.0 0.00 0.00 0.00 86 1013.4
20260905054005 77 110 0.0 0.0 0.00 0.00 0.00 86 1013.4
20260905053505 77 110 0.0 0.0 0.00 0.00 0.00 86 1013.3
20260905053008 77 110 0.0 0.0 0.00 0.00 0.00 86 1013.4
20260905052504 77 110 0.0 0.0 0.00 0.00 0.00 86 1013.3
20260905052005 77 110 0.0 0.0 0.00 0.00 0.00 85 1013.3
20260905051504 77 110 0.0 0.0 0.00 0.00 0.00 85 1013.3
20260905050504 77 110 0.0 0.0 0.00 0.00 0.00 85 1013.3
20260905050009 77 110 0.0 0.0 0.00 0.00 0.00 85 1013.3
20260905045006 77 110 0.0 0.0 0.00 0.00 0.00 84 1013.4
20260905044504 78 110 0.0 0.0 0.00 0.00 0.00 83 1013.3
20260905044005 78 111 0.0 0.0 0.00 0.00 0.00 83 1013.3
20260905043504 78 111 0.0 0.0 0.00 0.00 0.00 83 1013.5
20260905043007 78 111 0.0 0.0 0.00 0.00 0.00 83 1013.4
20260905042504 78 111 0.0 0.0 0.00 0.00 0.00 83 1013.6
20260905041005 78 111 0.0 0.0 0.00 0.00 0.00 82 1013.7
20260905040007 79 111 0.0 0.0 0.00 0.00 0.00 81 1013.9
20260905035006 79 111 0.0 0.0 0.00 0.00 0.00 80 1013.9
20260905034005 79 111 0.0 0.0 0.00 0.00 0.00 79 1014.0
20260905033503 79 110 0.0 0.0 0.00 0.00 0.00 79 1013.9
20260905033007 79 111 0.0 0.0 0.00 0.00 0.00 79 1013.9
20260905032504 79 111 0.0 0.0 0.00 0.00 0.00 78 1013.9
20260905032005 79 111 0.0 0.0 0.00 0.00 0.00 78 1013.8
20260905031005 80 111 0.0 0.0 0.00 0.00 0.00 78 1014.0
20260905030504 80 111 0.0 0.0 0.00 0.00 0.00 77 1013.9
20260905030007 80 115 0.0 0.0 0.00 0.00 0.00 77 1014.0
20260905025004 80 115 0.0 0.0 0.00 0.00 0.00 77 1014.0
20260905024506 80 115 0.0 1.7 0.00 0.00 0.00 77 1014.0
20260905024005 80 115 0.9 5.2 0.00 0.00 0.00 76 1014.0
20260905023503 81 115 0.9 5.2 0.00 0.00 0.00 76 1013.9
20260905023006 81 112 0.9 3.5 0.00 0.00 0.00 76 1014.0
20260905022504 81 74 0.9 3.5 0.00 0.00 0.00 76 1014.0
20260905022006 81 78 0.9 2.6 0.00 0.00 0.00 76 1013.8
20260905021504 81 40 0.9 4.3 0.00 0.00 0.00 76 1014.0
20260905021005 82 84 0.9 4.3 0.00 0.00 0.00 76 1013.8
20260905020504 82 10 0.9 2.6 0.00 0.00 0.00 76 1013.9
20260905020007 82 74 0.9 3.5 0.00 0.00 0.00 76 1013.9
20260905015503 82 49 0.9 4.3 0.00 0.00 0.00 76 1014.0
20260905015004 82 90 0.9 2.6 0.00 0.00 0.00 76 1013.9
20260905014505 82 55 0.9 7.8 0.00 0.00 0.00 76 1014.0
20260905014004 82 72 0.9 6.1 0.00 0.00 0.00 76 1013.7
20260905013503 82 78 0.9 2.6 0.00 0.00 0.00 76 1013.8
20260905012504 82 79 0.0 4.3 0.00 0.00 0.00 76 1014.1
20260905011505 83 113 0.0 0.9 0.00 0.00 0.00 74 1013.7
20260905011005 83 113 0.0 0.9 0.00 0.00 0.00 74 1013.6
20260905010005 84 113 0.0 1.7 0.00 0.00 0.00 73 1013.6
20260905005004 84 113 0.0 0.9 0.00 0.00 0.00 72 1013.5
20260905004504 84 113 0.0 0.9 0.00 0.00 0.00 72 1013.6
20260905004003 84 113 0.9 1.7 0.00 0.00 0.00 71 1013.5
20260905003503 85 113 0.9 1.7 0.00 0.00 0.00 71 1013.5
20260905003004 85 73 0.0 1.7 0.00 0.00 0.00 71 1013.5
20260905002503 85 135 0.0 0.9 0.00 0.00 0.00 71 1013.5
20260905002004 85 135 0.9 3.5 0.00 0.00 0.00 70 1013.6
20260905001003 86 106 0.0 2.6 0.00 0.00 0.00 69 1013.3